Theta_e
313 313 313 314 314 313 312 309 309 309 309 309 307 306 306 306 306 306 306 307 306 305 304 304 304 304 304 304 302 302 302 302 305 306 305 303 299 297 296 295 294 294 293
310 310 309 309 309 309 310 309 308 311 308 306 306 305 304 303 301 302 303 303 303 302 302 302 302 301 301 301 301 300 300 301 304 304 301 299 297 296 295 294 293 293 292
304 304 302 303 305 303 303 303 302 302 301 301 301 300 300 299 299 299 298 298 298 297 297 297 297 297 296 296 296 296 296 296 296 297 297 296 295 294 294 293 292 292 291
299 298 299 297 297 297 297 296 296 296 296 296 296 296 296 296 296 295 295 295 295 295 295 295 295 295 295 295 294 294 294 295 295 295 295 294 294 293 292 292 291 290 289
297 296 296 296 296 296 295 295 295 295 295 295 295 295 295 295 295 294 294 294 294 294 294 294 294 294 294 294 294 294 294 294 294 294 293 293 293 292 292 291 289 288 287
300 299 297 296 296 296 296 295 295 295 295 295 295 295 295 295 294 294 294 294 293 293 293 293 293 293 293 293 293 293 293 293 293 293 293 292 292 291 290 289 287 286 285
295 295 295 295 295 295 295 295 296 296 295 295 295 295 294 294 293 293 293 293 293 292 292 292 292 292 293 293 292 292 292 292 292 292 292 292 291 290 288 286 285 285 282
296 298 299 300 300 301 301 302 299 295 295 294 294 294 294 293 293 293 292 292 292 292 292 291 291 292 292 292 292 292 292 292 292 292 291 290 289 287 286 285 284 283 282
300 300 299 297 297 298 299 299 299 294 293 293 293 293 293 293 292 292 292 292 292 292 292 291 291 291 291 291 291 291 291 291 291 291 290 289 287 285 284 284 282 282 282
299 299 298 298 295 294 294 293 291 290 290 290 291 291 291 291 292 292 292 292 292 292 291 291 291 291 291 291 291 291 290 290 290 289 288 286 285 284 283 282 282 281 281
296 295 294 292 291 290 289 289 288 288 288 288 288 289 289 289 290 290 291 291 291 291 290 290 290 290 290 291 290 290 290 290 289 287 286 285 283 283 281 281 281 281 281
292 292 291 290 289 289 288 288 288 288 288 288 287 287 287 288 288 289 290 290 291 291 291 290 289 290 290 290 290 290 289 288 287 286 284 283 282 281 280 280 280 280 280
288 288 288 288 288 288 288 289 289 289 289 289 289 288 287 287 287 288 289 290 290 290 290 289 286 286 288 288 288 288 287 286 285 283 282 282 281 280 280 280 280 279 279
288 288 289 289 289 289 289 289 289 289 289 289 289 288 287 287 287 288 288 289 289 289 288 285 285 286 287 287 286 286 285 284 283 282 282 281 280 279 279 280 279 279 279
287 287 288 288 288 289 289 289 289 288 288 288 288 288 287 287 287 288 288 288 288 287 288 287 286 286 286 286 286 285 284 283 282 281 281 280 279 279 279 279 279 279 279
287 287 288 288 288 288 288 286 286 286 286 287 287 287 286 287 287 287 287 287 287 287 286 285 286 286 286 285 285 284 282 281 281 281 280 279 279 279 279 279 279 279 279
287 286 287 287 287 286 285 285 285 285 285 285 285 284 285 286 286 286 286 286 286 286 286 286 286 285 285 284 283 282 281 281 281 280 279 278 279 279 279 279 279 279 278
288 286 287 287 286 285 285 285 285 285 285 284 284 282 283 285 285 285 286 285 286 286 286 286 285 285 284 284 283 281 281 280 280 279 278 278 278 279 279 279 279 279 278
287 286 286 285 285 285 285 284 284 284 284 284 284 283 283 284 285 285 285 285 285 285 285 285 285 284 284 283 282 281 280 280 279 278 278 278 278 278 279 279 279 278 278
286 286 285 284 284 285 284 284 283 283 283 283 283 283 284 284 284 284 284 284 285 285 284 284 284 283 283 282 281 280 280 279 278 277 277 278 278 278 278 278 278 278 278
285 285 284 283 284 284 284 283 283 282 282 282 282 283 283 283 283 283 283 284 284 284 284 283 283 282 282 281 280 280 279 278 277 277 277 277 278 278 278 278 278 277 277
285 284 283 283 283 283 283 283 282 281 281 281 282 282 282 282 282 282 282 283 283 283 283 282 282 281 280 280 279 279 278 277 277 277 277 277 277 277 277 277 277 277 277
284 283 283 283 282 282 282 282 282 281 280 280 280 281 281 281 282 282 282 282 282 282 281 281 281 280 279 279 279 278 277 277 276 277 277 277 277 277 277 277 277 277 276
283 283 282 283 282 282 282 282 281 280 279 279 279 279 279 280 280 281 281 281 281 280 280 280 280 279 279 278 277 277 276 276 276 276 276 276 276 277 277 277 277 276 276
282 282 282 282 282 282 281 281 281 280 279 279 279 279 279 279 279 279 280 280 280 279 279 279 279 278 278 277 276 276 275 275 275 275 275 276 276 276 276 276 276 276 275
282 281 281 281 281 282 282 281 281 280 280 279 279 279 279 279 279 279 278 278 278 278 278 278 278 277 276 276 275 275 275 275 275 275 275 275 275 275 275 275 275 275 275
Wind_Speed
38 38 36 37 34 31 32 32 29 29 23 21 25 28 22 20 18 15 15 14 14 14 13 11 10 8 4 2 3 3 3 4 6 7 6 6 5 6 8 9 10 13 14
38 36 38 36 35 33 31 23 23 25 20 20 18 19 17 16 16 15 14 12 10 9 9 7 6 4 2 2 1 0 1 2 6 4 4 5 6 7 7 8 10 13 14
40 40 38 37 36 31 27 25 23 23 19 20 16 17 18 16 14 14 12 11 10 9 8 7 7 5 4 4 3 2 2 1 2 4 4 4 4 5 6 8 10 12 11
38 33 32 32 32 29 26 24 24 23 21 20 18 18 19 17 16 14 13 12 11 10 8 7 6 5 5 4 4 3 3 2 1 1 2 2 2 4 6 8 8 9 9
32 31 31 29 28 27 27 25 23 21 20 20 18 18 16 14 15 14 12 11 10 9 8 7 7 7 6 5 5 4 2 2 1 1 1 1 3 4 6 8 9 9 9
25 26 24 25 25 25 23 21 19 20 17 16 16 15 14 14 14 12 11 11 10 10 9 10 9 7 6 6 6 5 5 4 2 2 3 3 4 6 6 7 8 9 9
21 21 21 20 20 22 21 18 18 16 14 13 12 11 10 10 9 9 9 9 9 9 9 9 8 8 7 7 6 5 4 3 2 3 3 3 4 5 6 5 6 7 10
17 17 17 16 15 14 15 17 18 15 13 13 12 11 10 9 9 9 9 9 9 9 9 9 8 7 6 6 6 6 6 5 4 3 3 4 5 4 4 5 6 6 10
13 14 15 16 16 16 15 15 18 13 13 12 11 11 10 10 10 10 10 10 10 10 10 10 10 9 7 6 6 7 7 6 4 4 4 5 5 5 5 6 6 7 8
13 14 15 15 15 14 15 14 13 13 12 11 11 10 10 10 9 8 9 9 9 9 10 11 12 12 9 7 7 6 6 5 3 3 3 4 4 6 6 8 10 11 11
16 16 16 16 16 16 15 14 13 13 12 11 11 10 10 10 10 11 11 11 11 11 12 13 13 12 9 7 5 4 4 3 2 2 2 3 5 6 8 10 12 13 14
14 15 15 16 16 15 14 12 11 10 11 11 11 12 12 12 12 11 10 10 10 9 10 10 11 11 9 8 6 4 3 1 1 2 3 4 5 6 9 11 12 13 14
13 14 14 14 14 13 11 11 10 9 9 10 10 10 9 9 8 6 6 6 6 6 6 7 8 10 9 6 4 2 1 2 3 3 4 5 5 8 10 11 11 11 13
13 12 12 12 13 14 13 13 12 12 12 12 11 10 9 8 6 5 6 6 6 7 7 6 7 10 10 6 4 3 2 3 3 4 4 5 6 9 10 9 10 11 13
15 14 14 14 14 14 15 14 14 14 13 12 11 9 7 6 5 4 5 6 6 6 5 4 5 8 8 5 3 2 2 3 4 4 4 5 8 10 10 9 9 10 12
17 17 16 17 16 15 14 14 15 13 12 11 9 6 5 5 3 4 5 6 7 7 5 4 5 6 5 3 2 2 3 3 4 4 4 6 9 9 8 8 8 10 12
19 19 18 18 17 16 15 13 11 10 10 8 6 5 5 4 3 4 6 7 7 6 5 5 4 3 1 1 2 3 3 4 4 4 4 7 9 9 7 6 7 9 12
20 19 19 19 18 16 14 12 11 10 9 8 7 7 8 6 3 4 6 8 7 6 5 4 3 1 0 2 3 3 3 3 3 3 4 7 9 8 6 4 6 9 12
20 19 18 18 16 14 13 12 11 10 9 7 6 9 12 9 6 5 7 7 7 6 4 3 2 1 2 3 3 4 3 3 3 3 4 7 7 6 4 3 5 8 11
20 19 18 16 14 13 12 11 11 10 8 7 7 8 10 9 9 8 7 7 6 5 4 2 2 3 3 3 4 4 3 3 2 3 4 6 6 5 3 1 4 7 10
20 18 16 14 13 12 11 11 11 9 8 8 8 8 8 9 9 9 7 7 6 4 4 3 4 4 4 4 4 4 3 2 2 2 4 5 5 4 2 1 3 6 9
19 18 16 13 12 11 11 10 10 9 8 8 8 8 9 9 9 9 8 7 6 5 4 4 4 4 5 5 4 4 3 2 2 2 4 5 5 4 2 2 4 7 9
16 15 14 12 11 10 10 9 9 8 8 7 7 7 8 8 8 8 8 7 6 5 5 5 5 5 5 4 4 4 3 3 2 2 3 4 4 3 2 3 4 7 9
14 12 11 10 10 10 9 9 8 8 8 8 7 7 7 7 7 7 7 6 6 6 6 6 6 6 5 5 4 3 3 3 2 2 3 3 3 3 2 3 5 6 9
12 10 9 9 8 8 8 8 8 8 7 7 6 6 5 5 5 5 6 6 6 6 6 6 6 6 5 4 4 3 3 2 1 1 2 2 3 2 2 3 5 6 8
10 9 9 8 7 7 8 8 8 7 7 7 6 5 4 3 3 3 4 5 5 6 6 6 6 5 5 4 3 2 2 2 2 1 1 1 2 2 3 3 5 6 8
Wind_Direction
96 101 102 106 109 105 102 91 91 88 85 83 86 84 78 78 78 80 83 90 85 84 85 80 85 88 104 137 158 176 205 187 228 242 249 256 289 315 331 337 341 336 338
91 91 90 91 96 97 95 94 89 93 90 91 92 95 92 87 89 87 85 83 84 87 87 82 89 96 106 124 141 261 257 220 226 238 247 269 296 313 325 337 340 341 345
78 82 86 87 88 87 89 88 89 91 83 84 86 90 90 85 83 79 79 80 80 80 79 87 89 89 87 74 65 44 2 328 274 265 252 271 295 325 335 341 350 355 358
69 74 76 72 77 81 84 83 84 81 81 79 81 81 78 77 75 69 68 70 68 66 60 52 52 45 40 26 21 11 356 345 326 263 242 258 313 342 348 360 3 8 9
71 70 70 72 73 76 77 76 76 77 75 72 71 69 71 72 69 66 60 59 60 57 56 53 47 43 38 30 26 20 10 9 355 333 284 328 354 357 1 10 14 14 24
74 73 68 65 65 63 64 66 65 63 61 58 55 52 47 47 50 45 39 34 32 28 28 28 26 21 17 14 11 6 358 354 346 335 341 349 7 17 20 21 25 39 36
77 75 72 70 65 59 52 47 46 45 42 41 41 41 37 38 38 33 28 23 18 13 11 10 5 354 347 349 351 350 345 343 329 333 355 14 29 31 31 35 41 61 56
70 67 65 60 54 45 29 17 13 7 11 12 13 14 16 15 17 14 12 9 6 3 0 1 358 346 336 325 323 325 326 338 349 357 18 44 56 55 60 60 59 80 64
33 30 26 22 22 15 360 1 350 345 347 350 351 351 353 357 0 1 359 355 352 353 352 353 353 351 346 325 317 314 323 339 19 16 31 55 64 71 72 76 79 84 75
350 350 349 349 347 345 348 346 340 339 339 340 339 340 342 344 346 351 352 345 345 347 349 354 355 1 355 339 319 314 313 347 28 53 65 72 78 86 82 84 84 76 64
321 327 330 334 336 339 338 335 335 333 334 336 338 340 342 346 350 354 353 354 357 357 356 356 353 355 357 338 324 313 325 338 21 98 98 90 91 90 93 94 82 71 62
325 325 326 329 332 336 338 340 340 338 337 340 342 341 344 344 345 346 349 353 353 349 345 344 347 351 357 345 344 338 337 32 118 106 100 105 102 99 107 95 80 68 58
331 330 329 329 329 331 332 331 330 331 331 329 328 326 329 328 329 341 348 350 345 335 336 354 2 360 3 359 11 25 81 123 128 122 122 117 107 108 109 94 82 68 56
327 324 325 327 326 325 322 318 315 312 313 311 312 316 321 323 332 351 351 348 345 340 341 343 353 1 5 13 23 46 87 108 112 120 118 113 111 113 106 93 77 61 50
325 320 316 316 314 313 312 311 311 311 309 308 308 304 303 307 330 336 340 344 345 334 330 335 352 358 8 21 36 65 91 111 119 120 120 118 125 122 110 88 72 59 49
321 318 314 314 315 313 312 312 311 311 311 311 308 302 279 273 296 320 323 341 346 350 341 335 350 352 1 22 63 111 119 122 119 120 121 128 133 127 110 87 65 50 41
318 315 312 311 311 312 313 314 313 313 316 310 299 305 272 266 292 305 325 334 340 343 339 325 323 330 342 119 137 130 127 127 128 131 131 140 144 138 115 88 61 43 34
311 311 309 309 309 311 312 314 313 309 304 291 275 263 282 284 294 318 339 346 341 328 308 297 301 313 187 149 143 141 139 137 136 131 138 150 150 143 126 91 54 35 25
306 304 304 306 305 305 307 308 309 307 302 291 267 255 265 283 290 304 332 339 332 325 307 289 267 201 171 164 157 151 151 149 140 142 148 155 156 154 143 89 39 22 13
301 301 302 302 301 301 305 310 311 307 299 283 266 254 255 266 273 287 305 313 313 307 291 270 228 195 179 172 167 165 166 164 157 153 154 162 164 167 164 71 16 5 3
300 300 301 301 300 302 306 310 310 304 294 279 264 258 263 268 270 275 282 289 289 281 261 230 202 189 182 174 177 179 179 183 175 169 167 170 172 181 185 320 349 351 353
300 300 299 299 300 303 306 309 309 303 293 281 271 261 262 265 267 272 273 270 265 250 234 220 205 199 190 184 189 196 201 209 200 190 182 182 189 193 211 301 329 341 346
295 297 297 298 300 302 305 311 316 313 304 292 280 270 267 267 264 263 261 258 249 238 224 207 199 196 200 199 202 208 218 218 214 204 194 191 195 204 239 293 325 336 342
291 290 289 291 295 301 306 313 319 319 311 303 295 284 273 266 262 256 250 245 240 228 212 203 197 196 197 200 207 220 225 220 216 202 195 196 201 222 257 300 321 332 343
293 288 285 287 292 298 304 312 320 323 318 312 308 300 289 274 259 250 242 230 219 208 202 197 193 193 198 204 209 212 206 212 222 203 204 208 215 235 271 301 320 333 343
295 290 288 287 291 300 306 310 314 318 320 319 315 308 300 287 265 239 219 206 197 192 189 188 189 194 199 204 205 197 202 209 210 215 248 239 248 260 281 310 326 338 347